| time (UTC) | temp F | wind direction | speed MPH | gust MPH | rain 1hr in | rain 24hr in | rain mn in | humidity % | barometer mb |
| 20260509042716 | 72 | 0.0 | 0.0 | 0.00 | 0.00 | 0.00 | 84 | 984.7 | |
| 20260509041716 | 72 | 117 | 0.0 | 1.0 | 0.00 | 0.00 | 0.00 | 83 | 984.5 |
| 20260509040716 | 72 | 153 | 1.0 | 2.0 | 0.00 | 0.00 | 0.00 | 83 | 984.7 |
| 20260509035716 | 72 | 0.0 | 1.0 | 0.00 | 0.00 | 0.00 | 82 | 985.0 | |
| 20260509034716 | 72 | 0.0 | 0.0 | 0.00 | 0.00 | 0.00 | 83 | 985.5 | |
| 20260509033716 | 72 | 0.0 | 0.0 | 0.00 | 0.00 | 0.00 | 83 | 985.3 | |
| 20260509032716 | 72 | 0.0 | 0.0 | 0.00 | 0.00 | 0.00 | 83 | 985.0 | |
| 20260509031716 | 72 | 0.0 | 0.0 | 0.00 | 0.00 | 0.00 | 83 | 985.0 | |
| 20260509030736 | 72 | 0.0 | 0.0 | 0.00 | 0.00 | 0.00 | 83 | 984.8 | |
| 20260509025716 | 72 | 0.0 | 0.0 | 0.00 | 0.00 | 0.00 | 83 | 984.6 | |
| 20260509024717 | 72 | 0.0 | 1.0 | 0.00 | 0.00 | 0.00 | 82 | 984.3 | |
| 20260509023716 | 72 | 0.0 | 0.0 | 0.00 | 0.00 | 0.00 | 82 | 983.9 | |
| 20260509022716 | 72 | 0.0 | 0.0 | 0.00 | 0.00 | 0.00 | 82 | 983.9 | |
| 20260509021716 | 73 | 0.0 | 0.0 | 0.00 | 0.00 | 0.00 | 81 | 983.7 | |
| 20260509020716 | 73 | 155 | 0.0 | 1.0 | 0.00 | 0.00 | 0.00 | 81 | 983.7 |
| 20260509015716 | 73 | 0.0 | 0.0 | 0.00 | 0.00 | 0.00 | 80 | 983.8 | |
| 20260509014716 | 73 | 0.0 | 2.0 | 0.00 | 0.00 | 0.00 | 79 | 983.7 | |
| 20260509013716 | 73 | 0.0 | 0.0 | 0.00 | 0.00 | 0.00 | 79 | 983.6 | |
| 20260509012716 | 73 | 0.0 | 0.0 | 0.00 | 0.00 | 0.00 | 78 | 983.6 | |
| 20260509011716 | 73 | 0.0 | 0.0 | 0.00 | 0.00 | 0.00 | 78 | 983.5 | |
| 20260509010716 | 73 | 0.0 | 0.0 | 0.00 | 0.00 | 0.00 | 77 | 983.4 | |
| 20260509005716 | 74 | 0.0 | 0.0 | 0.00 | 0.00 | 0.00 | 77 | 983.2 | |
| 20260509004716 | 74 | 175 | 0.0 | 1.0 | 0.00 | 0.00 | 0.00 | 76 | 983.0 |
| 20260509003736 | 74 | 0.0 | 1.0 | 0.00 | 0.00 | 0.00 | 75 | 982.9 | |
| 20260509002716 | 74 | 0.0 | 0.0 | 0.00 | 0.00 | 0.00 | 75 | 982.9 | |
| 20260509001716 | 74 | 157 | 0.0 | 3.0 | 0.00 | 0.00 | 0.00 | 74 | 982.9 |
| 20260509000716 | 75 | 0.0 | 0.0 | 0.00 | 0.00 | 0.00 | 73 | 983.0 | |
| 20260508235716 | 75 | 0.0 | 1.0 | 0.00 | 0.00 | 0.00 | 72 | 983.2 | |
| 20260508234716 | 75 | 0.0 | 1.0 | 0.00 | 0.00 | 0.00 | 71 | 983.3 | |
| 20260508233716 | 75 | 0.0 | 0.0 | 0.00 | 0.00 | 0.00 | 71 | 983.3 | |
| 20260508232736 | 76 | 0.0 | 2.0 | 0.00 | 0.00 | 0.00 | 69 | 983.4 | |
| 20260508231736 | 76 | 157 | 0.0 | 2.0 | 0.00 | 0.00 | 0.00 | 69 | 983.4 |
| 20260508230716 | 77 | 154 | 0.0 | 2.0 | 0.00 | 0.00 | 0.00 | 67 | 983.5 |
| 20260508225716 | 77 | 0.0 | 0.0 | 0.00 | 0.00 | 0.00 | 67 | 983.5 | |
| 20260508224716 | 77 | 207 | 0.0 | 3.0 | 0.00 | 0.00 | 0.00 | 66 | 983.6 |
| 20260508223716 | 78 | 0.0 | 0.0 | 0.00 | 0.00 | 0.00 | 66 | 983.5 | |
| 20260508222716 | 78 | 191 | 1.0 | 5.0 | 0.00 | 0.00 | 0.00 | 64 | 983.4 |
| 20260508221716 | 79 | 147 | 1.0 | 3.0 | 0.00 | 0.00 | 0.00 | 64 | 983.3 |
| 20260508220716 | 79 | 0.0 | 2.0 | 0.00 | 0.00 | 0.00 | 64 | 983.3 | |
| 20260508215736 | 78 | 227 | 0.0 | 2.0 | 0.00 | 0.00 | 0.00 | 66 | 983.3 |
| 20260508214716 | 79 | 152 | 0.0 | 1.0 | 0.00 | 0.00 | 0.00 | 64 | 983.3 |
| 20260508213716 | 78 | 162 | 0.0 | 1.0 | 0.00 | 0.00 | 0.00 | 66 | 983.4 |
| 20260508212737 | 77 | 0.0 | 0.0 | 0.00 | 0.00 | 0.00 | 67 | 983.4 | |
| 20260508211716 | 76 | 0.0 | 1.0 | 0.00 | 0.00 | 0.00 | 68 | 983.6 | |
| 20260508210716 | 75 | 191 | 1.0 | 4.0 | 0.00 | 0.00 | 0.00 | 69 | 984.0 |
| 20260508205716 | 75 | 142 | 1.0 | 2.0 | 0.00 | 0.00 | 0.00 | 69 | 984.4 |
| 20260508204736 | 75 | 142 | 0.0 | 1.0 | 0.00 | 0.00 | 0.00 | 68 | 984.8 |
| 20260508203716 | 75 | 211 | 1.0 | 2.0 | 0.00 | 0.00 | 0.00 | 68 | 985.4 |
| 20260508202736 | 76 | 207 | 1.0 | 2.0 | 0.00 | 0.00 | 0.00 | 67 | 985.5 |
| 20260508201716 | 77 | 237 | 1.0 | 5.0 | 0.00 | 0.00 | 0.00 | 65 | 985.3 |
| 20260508200716 | 78 | 242 | 0.0 | 3.0 | 0.00 | 0.00 | 0.00 | 62 | 985.4 |
| 20260508195716 | 79 | 0.0 | 1.0 | 0.00 | 0.00 | 0.00 | 62 | 985.4 | |
| 20260508194716 | 79 | 226 | 1.0 | 3.0 | 0.00 | 0.00 | 0.00 | 61 | 985.4 |
| 20260508193736 | 79 | 0.0 | 3.0 | 0.00 | 0.00 | 0.00 | 61 | 985.4 | |
| 20260508192716 | 80 | 212 | 1.0 | 2.0 | 0.00 | 0.00 | 0.00 | 60 | 985.5 |
| 20260508191716 | 80 | 222 | 3.0 | 5.0 | 0.00 | 0.00 | 0.00 | 60 | 985.6 |
| 20260508190716 | 80 | 236 | 1.0 | 5.0 | 0.00 | 0.00 | 0.00 | 60 | 985.6 |
| 20260508185716 | 79 | 234 | 2.0 | 5.0 | 0.00 | 0.00 | 0.00 | 60 | 985.6 |
| 20260508184716 | 79 | 199 | 1.0 | 2.0 | 0.00 | 0.00 | 0.00 | 58 | 985.8 |
| 20260508183716 | 79 | 0.0 | 2.0 | 0.00 | 0.00 | 0.00 | 57 | 985.8 | |
| 20260508182716 | 80 | 108 | 0.0 | 2.0 | 0.00 | 0.00 | 0.00 | 58 | 986.0 |
| 20260508181716 | 78 | 194 | 1.0 | 4.0 | 0.00 | 0.00 | 0.00 | 58 | 986.2 |
| 20260508180716 | 78 | 141 | 1.0 | 2.0 | 0.00 | 0.00 | 0.00 | 59 | 986.5 |
| 20260508175716 | 78 | 205 | 0.0 | 2.0 | 0.00 | 0.00 | 0.00 | 59 | 986.6 |
| 20260508174716 | 77 | 94 | 1.0 | 4.0 | 0.00 | 0.00 | 0.00 | 60 | 986.7 |
| 20260508173716 | 77 | 143 | 0.0 | 2.0 | 0.00 | 0.00 | 0.00 | 59 | 986.8 |
| 20260508172716 | 76 | 112 | 1.0 | 3.0 | 0.00 | 0.00 | 0.00 | 61 | 986.8 |
| 20260508171716 | 75 | 175 | 1.0 | 3.0 | 0.00 | 0.00 | 0.00 | 62 | 987.2 |
| 20260508170716 | 74 | 150 | 0.0 | 3.0 | 0.00 | 0.00 | 0.00 | 63 | 987.5 |
| 20260508165716 | 73 | 180 | 1.0 | 2.0 | 0.00 | 0.00 | 0.00 | 64 | 987.8 |
| 20260508164716 | 73 | 0.0 | 0.0 | 0.00 | 0.00 | 0.00 | 65 | 987.9 | |
| 20260508163716 | 73 | 155 | 1.0 | 3.0 | 0.00 | 0.00 | 0.00 | 64 | 988.2 |
| 20260508162716 | 72 | 170 | 0.0 | 1.0 | 0.00 | 0.00 | 0.00 | 66 | 988.3 |
| 20260508161736 | 71 | 0.0 | 1.0 | 0.00 | 0.00 | 0.00 | 67 | 988.5 | |
| 20260508160737 | 70 | 248 | 0.0 | 2.0 | 0.00 | 0.00 | 0.00 | 67 | 988.7 |
| 20260508155716 | 70 | 158 | 1.0 | 3.0 | 0.00 | 0.00 | 0.00 | 66 | 988.6 |
| 20260508154716 | 70 | 161 | 0.0 | 1.0 | 0.00 | 0.00 | 0.00 | 67 | 988.9 |
| 20260508153716 | 69 | 174 | 0.0 | 2.0 | 0.00 | 0.00 | 0.00 | 67 | 988.9 |
| 20260508152736 | 69 | 177 | 1.0 | 2.0 | 0.00 | 0.00 | 0.00 | 67 | 988.9 |
| 20260508151716 | 69 | 141 | 1.0 | 2.0 | 0.00 | 0.00 | 0.00 | 69 | 989.1 |
| 20260508150736 | 69 | 152 | 1.0 | 3.0 | 0.00 | 0.00 | 0.00 | 70 | 989.1 |
| 20260508145756 | 68 | 179 | 0.0 | 2.0 | 0.00 | 0.00 | 0.00 | 69 | 989.0 |
| 20260508144716 | 68 | 141 | 0.0 | 3.0 | 0.00 | 0.00 | 0.00 | 70 | 988.9 |
| 20260508143716 | 68 | 0.0 | 0.0 | 0.00 | 0.00 | 0.00 | 71 | 989.0 | |
| 20260508142716 | 68 | 144 | 1.0 | 4.0 | 0.00 | 0.00 | 0.00 | 72 | 989.2 |
| 20260508141716 | 67 | 145 | 1.0 | 2.0 | 0.00 | 0.00 | 0.00 | 76 | 989.3 |
| 20260508140736 | 67 | 167 | 1.0 | 3.0 | 0.00 | 0.00 | 0.00 | 76 | 989.3 |
| 20260508135717 | 65 | 0.0 | 1.0 | 0.00 | 0.00 | 0.00 | 79 | 989.3 | |
| 20260508134716 | 65 | 164 | 0.0 | 1.0 | 0.00 | 0.00 | 0.00 | 80 | 989.2 |
| 20260508133716 | 64 | 0.0 | 1.0 | 0.00 | 0.00 | 0.00 | 83 | 989.3 | |
| 20260508132716 | 63 | 68 | 0.0 | 1.0 | 0.00 | 0.00 | 0.00 | 86 | 989.3 |
| 20260508131716 | 63 | 0.0 | 0.0 | 0.00 | 0.00 | 0.00 | 86 | 989.3 | |
| 20260508130716 | 63 | 0.0 | 0.0 | 0.00 | 0.00 | 0.00 | 88 | 989.4 | |
| 20260508125716 | 62 | 0.0 | 0.0 | 0.00 | 0.00 | 0.00 | 89 | 989.5 | |
| 20260508124716 | 61 | 0.0 | 0.0 | 0.00 | 0.00 | 0.00 | 90 | 989.5 | |
| 20260508123716 | 61 | 0.0 | 0.0 | 0.00 | 0.00 | 0.00 | 91 | 989.6 | |
| 20260508122716 | 61 | 0.0 | 0.0 | 0.00 | 0.00 | 0.00 | 90 | 989.6 | |
| 20260508121717 | 61 | 0.0 | 0.0 | 0.00 | 0.00 | 0.00 | 90 | 989.6 | |
| 20260508120716 | 61 | 0.0 | 0.0 | 0.00 | 0.00 | 0.00 | 91 | 989.5 | |
| 20260508115716 | 61 | 0.0 | 0.0 | 0.00 | 0.00 | 0.00 | 89 | 989.7 | |
| 20260508114717 | 62 | 0.0 | 0.0 | 0.00 | 0.00 | 0.00 | 88 | 989.5 | |
| 20260508113717 | 62 | 0.0 | 0.0 | 0.00 | 0.00 | 0.00 | 85 | 989.7 | |
| 20260508112716 | 62 | 0.0 | 0.0 | 0.00 | 0.00 | 0.00 | 85 | 989.3 | |
| 20260508111716 | 63 | 0.0 | 0.0 | 0.00 | 0.00 | 0.00 | 85 | 989.0 | |
| 20260508110736 | 63 | 0.0 | 0.0 | 0.00 | 0.00 | 0.00 | 85 | 989.5 | |
| 20260508105716 | 63 | 0.0 | 0.0 | 0.00 | 0.00 | 0.00 | 86 | 989.9 | |
| 20260508104716 | 62 | 0.0 | 0.0 | 0.00 | 0.00 | 0.00 | 87 | 989.8 | |
| 20260508103716 | 61 | 0.0 | 0.0 | 0.00 | 0.00 | 0.00 | 89 | 989.5 | |
| 20260508102716 | 62 | 0.0 | 0.0 | 0.00 | 0.00 | 0.00 | 88 | 988.7 | |
| 20260508101716 | 62 | 0.0 | 0.0 | 0.00 | 0.00 | 0.00 | 88 | 988.6 | |
| 20260508100716 | 62 | 0.0 | 0.0 | 0.00 | 0.00 | 0.00 | 87 | 988.6 | |
| 20260508095716 | 62 | 0.0 | 0.0 | 0.00 | 0.00 | 0.00 | 86 | 988.6 | |
| 20260508094716 | 62 | 0.0 | 0.0 | 0.00 | 0.00 | 0.00 | 85 | 988.4 | |
| 20260508093716 | 62 | 0.0 | 0.0 | 0.00 | 0.00 | 0.00 | 86 | 988.7 | |
| 20260508092736 | 62 | 0.0 | 0.0 | 0.00 | 0.00 | 0.00 | 87 | 988.8 | |
| 20260508092015 | 62 | 0.0 | 0.0 | 0.00 | 0.00 | 0.00 | 86 | 988.7 | |
| 20260508091015 | 62 | 0.0 | 0.0 | 0.00 | 0.00 | 0.00 | 86 | 988.9 | |
| 20260508090015 | 62 | 0.0 | 0.0 | 0.00 | 0.00 | 0.00 | 86 | 988.9 | |
| 20260508085015 | 62 | 287 | 0.0 | 1.0 | 0.00 | 0.00 | 0.00 | 86 | 989.3 |
| 20260508084015 | 62 | 0.0 | 0.0 | 0.00 | 0.00 | 0.00 | 86 | 988.6 | |
| 20260508083015 | 62 | 78 | 1.0 | 3.0 | 0.00 | 0.00 | 0.00 | 87 | 988.7 |
| 20260508082015 | 62 | 0.0 | 0.0 | 0.00 | 0.00 | 0.00 | 86 | 989.4 | |
| 20260508081015 | 62 | 0.0 | 0.0 | 0.00 | 0.00 | 0.00 | 85 | 989.8 | |
| 20260508080036 | 62 | 0.0 | 0.0 | 0.00 | 0.00 | 0.00 | 85 | 989.9 | |
| 20260508075015 | 61 | 0.0 | 0.0 | 0.00 | 0.00 | 0.00 | 86 | 990.6 | |
| 20260508074015 | 61 | 0.0 | 0.0 | 0.00 | 0.00 | 0.00 | 88 | 990.2 | |
| 20260508073015 | 61 | 0.0 | 0.0 | 0.00 | 0.00 | 0.00 | 88 | 989.7 | |
| 20260508072015 | 61 | 0.0 | 0.0 | 0.00 | 0.00 | 0.00 | 88 | 989.8 | |
| 20260508071015 | 61 | 0.0 | 0.0 | 0.00 | 0.00 | 0.00 | 88 | 989.8 | |
| 20260508070015 | 61 | 0.0 | 0.0 | 0.00 | 0.00 | 0.00 | 87 | 989.9 | |
| 20260508065035 | 61 | 0.0 | 0.0 | 0.00 | 0.00 | 0.00 | 88 | 989.9 | |
| 20260508064035 | 61 | 0.0 | 0.0 | 0.00 | 0.00 | 0.00 | 87 | 990.4 | |
| 20260508063015 | 60 | 0.0 | 0.0 | 0.00 | 0.00 | 0.00 | 88 | 990.3 | |
| 20260508062015 | 60 | 0.0 | 0.0 | 0.00 | 0.00 | 0.00 | 88 | 990.5 | |
| 20260508061035 | 60 | 0.0 | 0.0 | 0.00 | 0.00 | 0.00 | 88 | 990.4 | |
| 20260508060015 | 60 | 0.0 | 0.0 | 0.00 | 0.00 | 0.00 | 88 | 990.2 | |
| 20260508055015 | 60 | 0.0 | 0.0 | 0.00 | 0.00 | 0.00 | 87 | 990.5 | |
| 20260508054015 | 60 | 0.0 | 0.0 | 0.00 | 0.00 | 0.00 | 87 | 990.3 | |
| 20260508053015 | 60 | 0.0 | 0.0 | 0.00 | 0.00 | 0.00 | 87 | 990.4 | |
| 20260508052015 | 60 | 0.0 | 0.0 | 0.00 | 0.00 | 0.00 | 85 | 990.5 | |
| 20260508051015 | 60 | 0.0 | 0.0 | 0.00 | 0.00 | 0.00 | 84 | 990.4 | |
| 20260508050015 | 60 | 0.0 | 0.0 | 0.00 | 0.00 | 0.00 | 84 | 990.3 | |
| 20260508045015 | 61 | 0.0 | 0.0 | 0.00 | 0.00 | 0.00 | 83 | 990.5 | |
| 20260508044015 | 61 | 0.0 | 0.0 | 0.00 | 0.00 | 0.00 | 83 | 990.3 |